"Pseudo-MPEC" for A118n8s = A118l9Q = A1189Fm
Created 2024 Jul 11 22:31:05 UT using Find_Orb
Click here for an explanation of pseudo-MPECs
The A1 value shown below would be equivalent to an area/mass ratio of 93.7 +/- 0.2 m^2/kg. That's a little high, indicating a lightweight bit of insulated plastic (they do make the stuff that light) and/or an unusually broadside angle to the sun. The tangential forces are less than 0.5% of the radial force, which does make you think it's probably facing the sun straight on.
Astrometry:
A116A0b* C2024 05 12.17594414 36 05.635-31 28 11.50 ~5CLo 17.03oVNEOCPW68
A116A0b C2024 05 12.18158114 37 46.946-31 28 05.38 ~5CLo 16.95oVNEOCPW68
A116A0b C2024 05 12.21254114 46 39.694-31 22 57.00 ~5CLo 17.07oVNEOCPW68
A116A0b C2024 05 12.25364914 57 57.967-31 05 22.96 ~5CLo 17.06oVNEOCPW68
A116A0b C2024 05 12.25681514 58 49.330-31 03 33.55 ~5CLo 17.27oVNEOCPW68
A116A0b C2024 05 12.26233715 00 17.393-31 00 16.88 ~5CLo 17.25oVNEOCPW68
A1189Fm* C2024 07 05PSEh0dV6e,goDaX+J'XsHiN'T5_(dj5/XyMh69t#br@$B!6x/Fa]M22
A1189Fm C2024 07 05(oLgwjW3yifLX?,Y'%Q!]s#squ\r\sQEg(5yohh\n84-rofIK#w(M22
A1189Fm C2024 07 05vH#X@9QtDPLe;B-]$!8iEh9eldhil7IP2b[,,1H2P=T]!X89O\8=M22
A118l9Q* C2024 07 11u#/9ER_cj.mpNbV91hiNw)Urv^T4V)kevjr[-bi9NZIgk80t5j#DT08
A118l9Q C2024 07 11cT]qh9!4XwXP3flfdpoE?6j1!dkBETv\Lu'R-Xe^kAstrometryQT08
A118l9Q C2024 07 11*Hqo@n]W^oX#oIEnXAP^_%?l3wWKCbUkY$/LF11;C4el3Y$TdbmiT08
A118l9Q C2024 07 11'_VYp'X7mloVFBW-u]F.%g/JIIZ(?b^RS+xaDDcU+[UUh5Z*o:?%T08
A118l9Q C2024 07 11=a\redacted;EhIPfKk0J.eUDt6b*$QdcG@W@clickEtt,0j+y95T08
A118n8s* C2024 07 11eePi5oDYDZuN9MlNgYn2SiscY$M:\l@2[/[%B%:--ET/sABg-u08T08
A118n8s C2024 07 11j_Uqykcs#D]8#%r=CYJh33aTU)*9Bw]',TZw=.aklepd\:Da\1NxT08
A118n8s C2024 07 11@*'\hereh@$e$`qXtnv(H7soVjY9^WT@i(r/fyEU@#txcFV8n,@=T08
A118n8s C2024 07 11D:2^EmBW!*5/JhTY.WT`uT=3H#-e!!QV_QI[b%Rbcgq3U%G6!$e/T08
A118n8s C2024 07 11uRWy`waNV!YZ\A94)UT5fore3\]$7;iF7B$jexplanation\!jw)T08
Station data:
(M22) ATLAS South Africa, Sutherland (S32.380156 E20.810590) South Africa.
Observers L. Denneau, R. Siverd, J. Tonry, H. Weiland. Measurers L.
Denneau, N. Erasmus, A. Fitzsimmons, A. Lawrence, J. Robinson, R. Siverd,
J. Tonry, H. Weiland. 0.5-m reflector + CCD.
(T08) ATLAS-MLO, Mauna Loa (N19.536150 W155.576050) US/Hawaii. Observers
L. Denneau, A. Heinze, H. Weiland, J. Tonry, H. Flewelling, A.
Fitzsimmons, D. Young, B. Stalder. Measurers L. Denneau, A. Heinze, J.
Tonry. 0.5-m f/2.0 Schmidt + CCD.
(W68) ATLAS Chile, Rio Hurtado (S30.471010 W70.764980) Chile. Observers L.
Denneau, R. Siverd, J. Tonry, H. Weiland. Measurers L. Denneau, N.
Erasmus, A. Fitzsimmons, A. Lawrence, J. Robinson, R. Siverd, J. Tonry, H.
Weiland. 0.5-m reflector + CCD.
Orbital elements: A118n8s = A118l9Q = A1189Fm
Perigee 2024 Jul 11.813081 +/- 0.000804 TT = 19:30:50.2 (JD 2460503.313081)
A1: (2155.9 +/- 4.7)e-8 A2: (-5.38 +/- 2.79)e-8
A3: (-7.19 +/- 1.44)e-8 AU/day^2 [1/r^2]
Epoch 2024 Jul 12.0 TT = JDT 2460503.5 Find_Orb
M 60.318088461 +/- 0.26 (J2000 equator)
n 322.697087147 +/- 0.00778 Peri. 162.370748 +/- 0.037
a 45436.70289 +/- 0.73 Node 303.314338 +/- 0.0046
e 0.82005241 +/- 0.000663 Incl. 28.508388 +/- 0.018
P1606.430m/1.116d H 32.93 G 0.15 U 9.5
q 8176.224831 +/- 30.2 Q 82697.18096 +/- 29.8
From 19 observations 2024 May 12-July 11; mean residual 20".753
